Location: Lane
(33.5226°N, 79.8788°W)
Time: 03:23:08
(UTC+00:00)

Explorer 7 - Pass Details

Date: 08 October 2022
Orbit: 481 x 665 km, 50.3° (Epoch: 01 December)

Event Time Altitude Azimuth Distance (km) Brightness Sun altitude
Rises 18:11:13 0° 319° (NW) 2,989 10.4 47.6°
Reaches altitude 10° 18:14:45 10° 345° (NNW) 2,054 9.5 47.3°
Maximum altitude 18:17:11 14° 16° (NNE) 1,789 9.2 47.0°
Drops below altitude 10° 18:19:34 10° 48° (NE) 2,007 9.4 46.8°
Sets 18:22:56 0° 74° (ENE) 2,871 10.2 46.5°
